| time (UTC) | temp F | wind direction | speed MPH | gust MPH | rain 1hr in | rain 24hr in | rain mn in | humidity % | barometer mb |
| 20260507081815 | 43 | 318 | 1.0 | 2.0 | 0.00 | 0.00 | 0.00 | 69 | 1013.1 |
| 20260507080835 | 43 | 315 | 0.0 | 1.0 | 0.00 | 0.00 | 0.00 | 68 | 1013.1 |
| 20260507075816 | 43 | 0.0 | 0.0 | 0.00 | 0.00 | 0.00 | 68 | 1013.3 | |
| 20260507074836 | 43 | 313 | 1.0 | 2.0 | 0.00 | 0.00 | 0.00 | 69 | 1013.3 |
| 20260507073836 | 43 | 331 | 1.0 | 2.0 | 0.00 | 0.00 | 0.00 | 69 | 1013.3 |
| 20260507072816 | 43 | 0.0 | 0.0 | 0.00 | 0.00 | 0.00 | 68 | 1013.3 | |
| 20260507071836 | 43 | 235 | 1.0 | 2.0 | 0.00 | 0.00 | 0.00 | 68 | 1013.3 |
| 20260507070816 | 43 | 293 | 0.0 | 0.0 | 0.00 | 0.00 | 0.00 | 67 | 1013.3 |
| 20260507065836 | 44 | 348 | 0.0 | 2.0 | 0.00 | 0.00 | 0.00 | 68 | 1013.3 |
| 20260507064817 | 44 | 339 | 0.0 | 2.0 | 0.00 | 0.00 | 0.00 | 68 | 1013.4 |
| 20260507063837 | 44 | 251 | 1.0 | 2.0 | 0.00 | 0.00 | 0.00 | 67 | 1013.5 |
| 20260507062817 | 45 | 324 | 0.0 | 1.0 | 0.00 | 0.00 | 0.00 | 65 | 1013.5 |
| 20260507061817 | 45 | 2 | 2.0 | 4.0 | 0.00 | 0.00 | 0.00 | 65 | 1013.5 |
| 20260507060817 | 45 | 358 | 1.0 | 2.0 | 0.00 | 0.00 | 0.00 | 65 | 1013.5 |
| 20260507055818 | 46 | 354 | 2.0 | 4.0 | 0.00 | 0.00 | 0.00 | 65 | 1013.4 |
| 20260507054818 | 46 | 42 | 2.0 | 3.0 | 0.00 | 0.00 | 0.00 | 66 | 1013.4 |
| 20260507053835 | 46 | 352 | 2.0 | 4.0 | 0.00 | 0.00 | 0.00 | 65 | 1013.5 |
| 20260507052815 | 46 | 219 | 3.0 | 7.0 | 0.00 | 0.00 | 0.00 | 66 | 1013.5 |
| 20260507051855 | 46 | 8 | 0.0 | 2.0 | 0.00 | 0.00 | 0.00 | 63 | 1013.5 |
| 20260507050815 | 46 | 276 | 0.0 | 0.0 | 0.00 | 0.00 | 0.00 | 65 | 1013.4 |
| 20260507045815 | 46 | 345 | 1.0 | 2.0 | 0.00 | 0.00 | 0.00 | 66 | 1013.4 |
| 20260507044815 | 46 | 0.0 | 0.0 | 0.00 | 0.00 | 0.00 | 65 | 1013.5 | |
| 20260507043816 | 46 | 238 | 0.0 | 1.0 | 0.00 | 0.00 | 0.00 | 65 | 1013.4 |
| 20260507042816 | 46 | 0.0 | 0.0 | 0.00 | 0.00 | 0.00 | 63 | 1013.4 | |
| 20260507041816 | 46 | 240 | 0.0 | 1.0 | 0.00 | 0.00 | 0.00 | 63 | 1013.4 |
| 20260507040816 | 46 | 0.0 | 0.0 | 0.00 | 0.00 | 0.00 | 62 | 1013.4 | |
| 20260507035816 | 46 | 0.0 | 0.0 | 0.00 | 0.00 | 0.00 | 60 | 1013.5 | |
| 20260507034816 | 46 | 0.0 | 0.0 | 0.00 | 0.00 | 0.00 | 60 | 1013.5 | |
| 20260507033816 | 47 | 0.0 | 0.0 | 0.00 | 0.00 | 0.00 | 63 | 1013.5 | |
| 20260507032817 | 47 | 342 | 2.0 | 3.0 | 0.00 | 0.00 | 0.00 | 61 | 1013.5 |
| 20260507031817 | 47 | 320 | 0.0 | 2.0 | 0.00 | 0.00 | 0.00 | 60 | 1013.5 |
| 20260507030817 | 47 | 0.0 | 0.0 | 0.00 | 0.00 | 0.00 | 58 | 1013.6 | |
| 20260507025817 | 48 | 0.0 | 0.0 | 0.00 | 0.00 | 0.00 | 58 | 1013.6 | |
| 20260507024817 | 48 | 340 | 1.0 | 2.0 | 0.00 | 0.00 | 0.00 | 58 | 1013.6 |
| 20260507023837 | 48 | 222 | 0.0 | 0.0 | 0.00 | 0.00 | 0.00 | 54 | 1013.6 |
| 20260507022817 | 48 | 335 | 1.0 | 2.0 | 0.00 | 0.00 | 0.00 | 55 | 1013.6 |
| 20260507021818 | 49 | 0.0 | 0.0 | 0.00 | 0.00 | 0.00 | 53 | 1013.5 | |
| 20260507020838 | 49 | 0.0 | 0.0 | 0.00 | 0.00 | 0.00 | 54 | 1013.4 | |
| 20260507020018 | 0 | 224 | 0.0 | 0.0 | 0.00 | 0.00 | 0.00 | ||
| 20260507014815 | 49 | 305 | 0.0 | 1.0 | 0.00 | 0.00 | 0.00 | 51 | 1013.2 |
| 20260507013815 | 49 | 0.0 | 0.0 | 0.00 | 0.00 | 0.00 | 51 | 1013.1 | |
| 20260507012816 | 49 | 201 | 0.0 | 2.0 | 0.00 | 0.00 | 0.00 | 50 | 1013.1 |
| 20260507011816 | 50 | 0.0 | 0.0 | 0.00 | 0.00 | 0.00 | 51 | 1013.1 | |
| 20260507010816 | 50 | 0.0 | 0.0 | 0.00 | 0.00 | 0.00 | 50 | 1013.1 | |
| 20260507005817 | 50 | 0.0 | 0.0 | 0.00 | 0.00 | 0.00 | 49 | 1013.1 | |
| 20260507004816 | 50 | 211 | 1.0 | 2.0 | 0.00 | 0.00 | 0.00 | 47 | 1013.0 |
| 20260507003916 | 50 | 256 | 1.0 | 3.0 | 0.00 | 0.00 | 0.00 | 46 | 1013.0 |
| 20260507002817 | 50 | 253 | 1.0 | 3.0 | 0.00 | 0.00 | 0.00 | 50 | 1013.0 |
| 20260507001836 | 50 | 63 | 1.0 | 2.0 | 0.00 | 0.00 | 0.00 | 44 | 1012.8 |
| 20260507000817 | 50 | 185 | 1.0 | 3.0 | 0.00 | 0.00 | 0.00 | 45 | 1012.7 |
| 20260506235817 | 51 | 227 | 2.0 | 3.0 | 0.00 | 0.00 | 0.00 | 48 | 1012.6 |
| 20260506234817 | 51 | 216 | 4.0 | 7.0 | 0.00 | 0.00 | 0.00 | 45 | 1012.7 |
| 20260506233817 | 51 | 317 | 1.0 | 2.0 | 0.00 | 0.00 | 0.00 | 47 | 1012.7 |
| 20260506232838 | 51 | 9 | 2.0 | 3.0 | 0.00 | 0.00 | 0.00 | 43 | 1012.7 |
| 20260506231817 | 51 | 223 | 3.0 | 6.0 | 0.00 | 0.00 | 0.00 | 44 | 1012.7 |
| 20260506230835 | 51 | 249 | 2.0 | 4.0 | 0.00 | 0.00 | 0.00 | 43 | 1012.7 |
| 20260506225818 | 52 | 169 | 2.0 | 3.0 | 0.00 | 0.00 | 0.00 | 44 | 1012.6 |
| 20260506224818 | 52 | 217 | 2.0 | 5.0 | 0.00 | 0.00 | 0.00 | 43 | 1012.6 |
| 20260506223815 | 53 | 222 | 2.0 | 4.0 | 0.00 | 0.00 | 0.00 | 43 | 1012.7 |
| 20260506222816 | 54 | 14 | 4.0 | 7.0 | 0.00 | 0.00 | 0.00 | 41 | 1012.6 |
| 20260506221816 | 54 | 36 | 2.0 | 4.0 | 0.00 | 0.00 | 0.00 | 40 | 1012.5 |
| 20260506220816 | 55 | 313 | 3.0 | 6.0 | 0.00 | 0.00 | 0.00 | 40 | 1012.5 |
| 20260506215836 | 55 | 231 | 1.0 | 4.0 | 0.00 | 0.00 | 0.00 | 41 | 1012.4 |
| 20260506214816 | 54 | 41 | 3.0 | 5.0 | 0.00 | 0.00 | 0.00 | 40 | 1012.5 |
| 20260506213816 | 54 | 23 | 4.0 | 8.0 | 0.00 | 0.00 | 0.00 | 43 | 1012.5 |
| 20260506212817 | 54 | 123 | 3.0 | 5.0 | 0.00 | 0.00 | 0.00 | 41 | 1012.4 |
| 20260506211837 | 54 | 324 | 4.0 | 8.0 | 0.00 | 0.00 | 0.00 | 42 | 1012.5 |
| 20260506210817 | 54 | 196 | 5.0 | 8.0 | 0.00 | 0.00 | 0.00 | 40 | 1012.5 |
| 20260506205817 | 54 | 62 | 4.0 | 9.0 | 0.00 | 0.00 | 0.00 | 42 | 1012.5 |
| 20260506204837 | 54 | 290 | 5.0 | 8.0 | 0.00 | 0.00 | 0.00 | 41 | 1012.5 |
| 20260506203817 | 54 | 178 | 5.0 | 8.0 | 0.00 | 0.00 | 0.00 | 42 | 1012.7 |
| 20260506202818 | 54 | 105 | 3.0 | 5.0 | 0.00 | 0.00 | 0.00 | 41 | 1012.6 |
| 20260506201818 | 53 | 203 | 4.0 | 6.0 | 0.00 | 0.00 | 0.00 | 40 | 1012.6 |
| 20260506200818 | 53 | 338 | 5.0 | 9.0 | 0.00 | 0.00 | 0.00 | 43 | 1012.9 |
| 20260506195818 | 53 | 166 | 5.0 | 7.0 | 0.00 | 0.00 | 0.00 | 40 | 1012.9 |
| 20260506194815 | 53 | 7 | 3.0 | 7.0 | 0.00 | 0.00 | 0.00 | 40 | 1012.9 |
| 20260506193815 | 53 | 44 | 2.0 | 3.0 | 0.00 | 0.00 | 0.00 | 40 | 1012.9 |
| 20260506192816 | 53 | 22 | 4.0 | 8.0 | 0.00 | 0.00 | 0.00 | 40 | 1012.9 |
| 20260506191836 | 53 | 5 | 6.0 | 9.0 | 0.00 | 0.00 | 0.00 | 43 | 1012.9 |
| 20260506190816 | 53 | 283 | 6.0 | 12.0 | 0.00 | 0.00 | 0.00 | 41 | 1012.9 |
| 20260506185816 | 53 | 330 | 2.0 | 6.0 | 0.00 | 0.00 | 0.00 | 41 | 1012.9 |
| 20260506184817 | 52 | 330 | 3.0 | 4.0 | 0.00 | 0.00 | 0.00 | 40 | 1012.8 |
| 20260506183816 | 53 | 215 | 4.0 | 7.0 | 0.00 | 0.00 | 0.00 | 41 | 1013.0 |
| 20260506182816 | 53 | 78 | 6.0 | 8.0 | 0.00 | 0.00 | 0.00 | 41 | 1012.8 |
| 20260506181837 | 52 | 202 | 2.0 | 3.0 | 0.00 | 0.00 | 0.00 | 42 | 1012.7 |
| 20260506180816 | 52 | 178 | 4.0 | 8.0 | 0.00 | 0.00 | 0.00 | 43 | 1012.9 |
| 20260506175817 | 52 | 251 | 3.0 | 6.0 | 0.00 | 0.00 | 0.00 | 42 | 1012.8 |
| 20260506174817 | 52 | 216 | 3.0 | 6.0 | 0.00 | 0.00 | 0.00 | 44 | 1012.9 |
| 20260506173817 | 52 | 229 | 5.0 | 9.0 | 0.00 | 0.00 | 0.00 | 43 | 1013.0 |
| 20260506172817 | 51 | 11 | 3.0 | 6.0 | 0.00 | 0.00 | 0.00 | 44 | 1013.1 |
| 20260506171818 | 52 | 13 | 5.0 | 7.0 | 0.00 | 0.00 | 0.00 | 42 | 1013.1 |
| 20260506170818 | 51 | 14 | 4.0 | 5.0 | 0.00 | 0.00 | 0.00 | 43 | 1013.1 |
| 20260506165818 | 51 | 31 | 2.0 | 5.0 | 0.00 | 0.00 | 0.00 | 42 | 1013.2 |
| 20260506164838 | 52 | 294 | 5.0 | 7.0 | 0.00 | 0.00 | 0.00 | 40 | 1013.2 |
| 20260506163818 | 51 | 37 | 4.0 | 6.0 | 0.00 | 0.00 | 0.00 | 42 | 1013.1 |
| 20260506162815 | 51 | 200 | 2.0 | 3.0 | 0.00 | 0.00 | 0.00 | 42 | 1013.0 |
| 20260506161815 | 51 | 227 | 1.0 | 3.0 | 0.00 | 0.00 | 0.00 | 42 | 1013.1 |
| 20260506160836 | 51 | 138 | 1.0 | 3.0 | 0.00 | 0.00 | 0.00 | 45 | 1013.1 |
| 20260506155816 | 51 | 355 | 4.0 | 7.0 | 0.00 | 0.00 | 0.00 | 45 | 1013.2 |
| 20260506154816 | 50 | 346 | 2.0 | 5.0 | 0.00 | 0.00 | 0.00 | 43 | 1013.3 |
| 20260506153836 | 49 | 209 | 1.0 | 4.0 | 0.00 | 0.00 | 0.00 | 47 | 1013.1 |
| 20260506152816 | 49 | 59 | 2.0 | 4.0 | 0.00 | 0.00 | 0.00 | 46 | 1013.3 |
| 20260506151836 | 49 | 207 | 2.0 | 3.0 | 0.00 | 0.00 | 0.00 | 44 | 1013.2 |
| 20260506150816 | 49 | 336 | 2.0 | 5.0 | 0.00 | 0.00 | 0.00 | 49 | 1013.3 |
| 20260506145816 | 48 | 20 | 3.0 | 5.0 | 0.00 | 0.00 | 0.00 | 47 | 1013.3 |
| 20260506144817 | 48 | 5 | 5.0 | 6.0 | 0.00 | 0.00 | 0.00 | 49 | 1013.1 |
| 20260506143817 | 48 | 16 | 3.0 | 4.0 | 0.00 | 0.00 | 0.00 | 48 | 1013.1 |
| 20260506142826 | 48 | 313 | 0.0 | 1.0 | 0.00 | 0.00 | 0.00 | 52 | 1013.0 |
| 20260506141826 | 47 | 39 | 1.0 | 3.0 | 0.00 | 0.00 | 0.00 | 52 | 1012.9 |
| 20260506140826 | 47 | 344 | 1.0 | 2.0 | 0.00 | 0.00 | 0.00 | 51 | 1012.9 |
| 20260506135817 | 46 | 348 | 3.0 | 6.0 | 0.00 | 0.00 | 0.00 | 55 | 1012.9 |
| 20260506134826 | 46 | 13 | 4.0 | 5.0 | 0.00 | 0.00 | 0.00 | 63 | 1012.8 |
| 20260506133827 | 46 | 358 | 1.0 | 3.0 | 0.00 | 0.00 | 0.00 | 61 | 1012.8 |
| 20260506132818 | 45 | 344 | 4.0 | 5.0 | 0.00 | 0.00 | 0.00 | 69 | 1012.6 |
| 20260506131838 | 45 | 2 | 2.0 | 4.0 | 0.00 | 0.00 | 0.00 | 64 | 1012.4 |
| 20260506130827 | 44 | 354 | 4.0 | 4.0 | 0.00 | 0.00 | 0.00 | 67 | 1012.4 |
| 20260506125827 | 43 | 38 | 1.0 | 2.0 | 0.00 | 0.00 | 0.00 | 69 | 1012.5 |
| 20260506124827 | 43 | 109 | 1.0 | 2.0 | 0.00 | 0.00 | 0.00 | 72 | 1012.6 |
| 20260506123827 | 42 | 0.0 | 0.0 | 0.00 | 0.00 | 0.00 | 76 | 1012.7 | |
| 20260506122848 | 41 | 184 | 1.0 | 2.0 | 0.00 | 0.00 | 0.00 | 75 | 1012.5 |
| 20260506121828 | 41 | 357 | 3.0 | 3.0 | 0.00 | 0.00 | 0.00 | 78 | 1012.5 |
| 20260506120828 | 41 | 0 | 2.0 | 3.0 | 0.00 | 0.00 | 0.00 | 76 | 1012.4 |
| 20260506115828 | 40 | 15 | 2.0 | 3.0 | 0.00 | 0.00 | 0.00 | 78 | 1012.3 |
| 20260506114828 | 39 | 334 | 2.0 | 3.0 | 0.00 | 0.00 | 0.00 | 77 | 1012.0 |
| 20260506113828 | 39 | 345 | 2.0 | 2.0 | 0.00 | 0.00 | 0.00 | 80 | 1011.8 |
| 20260506112829 | 38 | 332 | 1.0 | 2.0 | 0.00 | 0.00 | 0.00 | 81 | 1011.7 |
| 20260506111829 | 38 | 344 | 2.0 | 3.0 | 0.00 | 0.00 | 0.00 | 86 | 1011.4 |
| 20260506110829 | 38 | 354 | 1.0 | 2.0 | 0.00 | 0.00 | 0.00 | 89 | 1011.2 |
| 20260506105829 | 37 | 316 | 1.0 | 2.0 | 0.00 | 0.00 | 0.00 | 86 | 1011.0 |
| 20260506104829 | 38 | 0.0 | 0.0 | 0.00 | 0.00 | 0.00 | 86 | 1011.0 | |
| 20260506103849 | 38 | 288 | 1.0 | 1.0 | 0.00 | 0.00 | 0.00 | 86 | 1011.2 |
| 20260506102829 | 38 | 290 | 0.0 | 0.0 | 0.00 | 0.00 | 0.00 | 87 | 1011.2 |
| 20260506101849 | 38 | 0.0 | 0.0 | 0.00 | 0.00 | 0.00 | 86 | 1011.2 | |
| 20260506100830 | 39 | 305 | 1.0 | 1.0 | 0.00 | 0.00 | 0.00 | 83 | 1011.2 |
| 20260506095830 | 39 | 0.0 | 0.0 | 0.00 | 0.00 | 0.00 | 85 | 1011.2 | |
| 20260506094815 | 39 | 267 | 1.0 | 1.0 | 0.00 | 0.00 | 0.00 | 84 | 1011.0 |
| 20260506093815 | 39 | 283 | 1.0 | 1.0 | 0.00 | 0.00 | 0.00 | 85 | 1010.9 |
| 20260506092850 | 39 | 276 | 0.0 | 1.0 | 0.00 | 0.00 | 0.00 | 86 | 1010.9 |
| 20260506091816 | 39 | 290 | 1.0 | 2.0 | 0.00 | 0.00 | 0.00 | 88 | 1010.6 |
| 20260506090836 | 39 | 320 | 0.0 | 1.0 | 0.00 | 0.00 | 0.00 | 87 | 1010.5 |
| 20260506085815 | 39 | 323 | 1.0 | 1.0 | 0.00 | 0.00 | 0.00 | 88 | 1010.4 |
| 20260506084816 | 40 | 308 | 1.0 | 1.0 | 0.00 | 0.00 | 0.00 | 87 | 1010.4 |
| 20260506083836 | 40 | 262 | 0.0 | 1.0 | 0.00 | 0.00 | 0.00 | 88 | 1010.3 |
| 20260506082836 | 40 | 264 | 0.0 | 1.0 | 0.00 | 0.00 | 0.00 | 86 | 1010.3 |